EXS1472 LSGG-EGSS

Flight info

Callsign EXS1472
Flight time N/A
Altitude 36000
Route SIROD1N/04 SIROD Z124 IBABA DCT TUTAX DCT OBURO DCT OKRIX DCT CLM DCT KOPOR DCT SOSUN DCT SUBIP UM733 BANVA
Aircraft B738/M-SDE2E3FGHIRWXY/LB1

Departure

Time N/A
Airport Geneva International Airport (LSGG)

Arrival

Time 2026-04-30 18:38
Airport London Stansted Airport (EGSS)
Time Latitude Longitude Altitude Speed Heading
2026-04-30 17:39 48.51806 3.22250 36154 ft 453 kts 339°
2026-04-30 17:42 48.80910 3.03706 36164 ft 454 kts 338°
2026-04-30 17:43 48.94838 2.92502 36173 ft 455 kts 330°
2026-04-30 17:44 49.11244 2.77918 36154 ft 455 kts 331°
2026-04-30 17:47 49.35857 2.56049 36171 ft 455 kts 330°
2026-04-30 17:48 49.53984 2.37536 36168 ft 437 kts 310°
2026-04-30 17:50 49.69256 2.08228 36166 ft 439 kts 309°
2026-04-30 17:52 49.80773 1.86157 36158 ft 440 kts 308°
2026-04-30 17:53 49.90189 1.67967 36139 ft 411 kts 308°
2026-04-30 17:54 49.97532 1.53691 36162 ft 439 kts 308°
2026-04-30 17:55 50.08180 1.45857 36147 ft 450 kts 13°
2026-04-30 17:56 50.16405 1.58179 36158 ft 417 kts 82°
2026-04-30 17:57 50.14783 1.71009 36151 ft 411 kts 125°
2026-04-30 17:58 50.09435 1.81558 36151 ft 414 kts 129°
2026-04-30 18:00 49.91396 1.98660 36157 ft 425 kts 200°
2026-04-30 18:00 49.85457 1.88696 36170 ft 441 kts 252°
2026-04-30 18:01 49.85227 1.80783 36164 ft 447 kts 281°
2026-04-30 18:02 49.89994 1.68498 36149 ft 451 kts 309°
2026-04-30 18:02 49.95795 1.57192 36148 ft 441 kts 307°
2026-04-30 18:03 50.01960 1.46617 36162 ft 443 kts 319°
2026-04-30 18:04 50.09037 1.37367 35906 ft 442 kts 320°
2026-04-30 18:05 50.18135 1.25064 34530 ft 425 kts 318°
2026-04-30 18:06 50.26906 1.13002 32996 ft 415 kts 318°
2026-04-30 18:07 50.35467 1.01180 31605 ft 405 kts 318°
2026-04-30 18:08 50.41734 0.92489 30593 ft 398 kts 319°
2026-04-30 18:09 50.50049 0.81230 29156 ft 389 kts 320°
2026-04-30 18:10 50.58174 0.70409 27755 ft 380 kts 320°
2026-04-30 18:11 50.66165 0.59742 26395 ft 372 kts 319°
2026-04-30 18:11 50.72014 0.51897 25414 ft 367 kts 319°
2026-04-30 18:12 50.77812 0.44096 24406 ft 365 kts 319°
2026-04-30 18:13 50.81677 0.38879 23707 ft 365 kts 319°
2026-04-30 18:13 50.86789 0.31955 22742 ft 361 kts 319°
2026-04-30 18:14 50.91212 0.25947 21967 ft 356 kts 319°
2026-04-30 18:15 50.96782 0.18360 21000 ft 350 kts 319°
2026-04-30 18:15 51.02317 0.10855 20105 ft 344 kts 322°
2026-04-30 18:16 51.06195 0.06488 19628 ft 344 kts 326°
2026-04-30 18:16 51.10163 0.02212 19149 ft 343 kts 325°
2026-04-30 18:17 51.12132 0.00066 18912 ft 342 kts 325°
2026-04-30 18:17 51.14063 -0.02055 18703 ft 341 kts 325°
2026-04-30 18:17 51.17973 -0.06380 18192 ft 341 kts 325°
2026-04-30 18:18 51.19921 -0.08545 17942 ft 340 kts 324°
2026-04-30 18:18 51.21857 -0.10699 17691 ft 339 kts 324°
2026-04-30 18:18 51.23763 -0.12824 17459 ft 338 kts 324°
2026-04-30 18:18 51.25693 -0.14978 17214 ft 337 kts 324°
2026-04-30 18:19 51.27617 -0.17127 16993 ft 337 kts 324°
2026-04-30 18:19 51.29540 -0.19277 16756 ft 336 kts 324°
2026-04-30 18:19 51.31458 -0.21425 16523 ft 336 kts 324°
2026-04-30 18:19 51.33350 -0.23545 16296 ft 336 kts 324°
2026-04-30 18:20 51.35267 -0.25696 16063 ft 335 kts 324°
2026-04-30 18:20 51.37187 -0.27851 15830 ft 336 kts 324°
2026-04-30 18:20 51.39091 -0.29991 15599 ft 332 kts 324°
2026-04-30 18:20 51.40979 -0.32094 15360 ft 328 kts 328°
2026-04-30 18:21 51.43047 -0.33400 15120 ft 322 kts 354°
2026-04-30 18:21 51.45252 -0.33300 14933 ft 314 kts 15°
2026-04-30 18:21 51.47278 -0.32109 14735 ft 308 kts 28°
2026-04-30 18:21 51.49214 -0.30640 14511 ft 307 kts 30°
2026-04-30 18:22 51.51136 -0.29131 14307 ft 307 kts 30°
2026-04-30 18:22 51.54984 -0.26116 13854 ft 307 kts 30°
2026-04-30 18:22 51.56908 -0.24621 13632 ft 307 kts 30°
2026-04-30 18:23 51.58836 -0.23130 13474 ft 307 kts 29°
2026-04-30 18:23 51.60758 -0.21648 13266 ft 306 kts 29°
2026-04-30 18:23 51.62662 -0.20181 13058 ft 306 kts 29°
2026-04-30 18:23 51.64579 -0.18703 12847 ft 305 kts 29°
2026-04-30 18:24 51.68410 -0.15749 12428 ft 304 kts 29°
2026-04-30 18:24 51.70322 -0.14273 12218 ft 304 kts 29°
2026-04-30 18:24 51.72206 -0.12818 12010 ft 303 kts 29°
2026-04-30 18:25 51.74108 -0.11347 11784 ft 303 kts 29°
2026-04-30 18:25 51.77948 -0.08535 11371 ft 302 kts 26°
2026-04-30 18:25 51.79877 -0.07203 11157 ft 300 kts 26°
2026-04-30 18:26 51.83735 -0.04528 10737 ft 305 kts 26°
2026-04-30 18:26 51.85700 -0.03156 10501 ft 309 kts 26°
2026-04-30 18:26 51.87671 -0.01776 10280 ft 306 kts 26°
2026-04-30 18:27 51.91462 0.00985 9816 ft 294 kts 36°
2026-04-30 18:27 51.93103 0.02878 9618 ft 286 kts 41°
2026-04-30 18:28 51.96249 0.06667 9241 ft 276 kts 41°
2026-04-30 18:28 51.97761 0.08530 9101 ft 268 kts 47°
2026-04-30 18:28 51.98858 0.13563 8923 ft 233 kts 108°
2026-04-30 18:29 51.98123 0.15804 8737 ft 225 kts 137°
2026-04-30 18:29 51.93862 0.15278 7862 ft 242 kts 229°
2026-04-30 18:30 51.92525 0.10221 7375 ft 248 kts 245°
2026-04-30 18:30 51.91414 0.05013 7042 ft 241 kts 246°
2026-04-30 18:31 51.90872 0.02451 6817 ft 240 kts 246°
2026-04-30 18:31 51.89761 -0.02628 6364 ft 236 kts 237°
2026-04-30 18:32 51.87235 -0.05074 5958 ft 213 kts 176°
2026-04-30 18:32 51.85776 -0.04859 5630 ft 209 kts 172°
2026-04-30 18:32 51.82911 -0.04253 5032 ft 206 kts 171°
2026-04-30 18:33 51.81509 -0.03948 4699 ft 205 kts 171°
2026-04-30 18:33 51.79056 -0.02046 4107 ft 198 kts 133°
2026-04-30 18:33 51.78166 -0.00338 3762 ft 198 kts 131°
2026-04-30 18:34 51.77514 0.01590 3356 ft 199 kts 104°
2026-04-30 18:34 51.77941 0.05930 2657 ft 191 kts 81°
2026-04-30 18:34 51.78317 0.07890 2525 ft 178 kts 67°
2026-04-30 18:35 51.79142 0.09303 2510 ft 166 kts 51°
2026-04-30 18:35 51.79950 0.10567 2441 ft 160 kts 53°
2026-04-30 18:35 51.80756 0.11813 2237 ft 159 kts 52°
2026-04-30 18:36 51.82350 0.14221 1826 ft 153 kts 52°
2026-04-30 18:36 51.83092 0.15336 1656 ft 144 kts 53°
2026-04-30 18:36 51.84484 0.17435 1239 ft 134 kts 52°
2026-04-30 18:37 51.85170 0.18471 1066 ft 136 kts 51°
2026-04-30 18:37 51.85869 0.19523 886 ft 137 kts 50°
2026-04-30 18:37 51.86551 0.20549 659 ft 135 kts 47°
2026-04-30 18:37 51.87241 0.21570 485 ft 132 kts 46°
2026-04-30 18:38 51.87917 0.22598 349 ft 129 kts 48°
2026-04-30 18:38 51.88452 0.23407 347 ft 74 kts 43°
2026-04-30 18:38 51.88741 0.23843 343 ft 42 kts 44°
2026-04-30 18:38 51.88850 0.24095 351 ft 26 kts 66°
2026-04-30 18:39 51.88890 0.24278 356 ft 14 kts 72°
2026-04-30 18:39 51.88912 0.24394 350 ft 7 kts 73°
2026-04-30 18:39 51.88921 0.24460 351 ft 6 kts 90°
2026-04-30 18:39 51.88908 0.24525 355 ft 7 kts 103°
2026-04-30 18:40 51.88916 0.24602 350 ft 7 kts 47°
2026-04-30 18:40 51.88959 0.24655 353 ft 9 kts 41°
2026-04-30 18:40 51.89014 0.24738 348 ft 10 kts 48°
2026-04-30 18:40 51.89020 0.24843 350 ft 11 kts 127°
2026-04-30 18:41 51.88975 0.24937 352 ft 11 kts 123°
2026-04-30 18:41 51.88933 0.25029 354 ft 11 kts 132°
2026-04-30 18:41 51.88876 0.25128 351 ft 13 kts 133°
2026-04-30 18:41 51.88811 0.25244 352 ft 11 kts 132°
2026-04-30 18:42 51.88764 0.25323 348 ft 9 kts 134°
2026-04-30 18:42 51.88756 0.25427 353 ft 5 kts 41°
2026-04-30 18:42 51.88779 0.25462 353 ft 3 kts 43°